CG6040 KAVX-KSAN

Flight info

Callsign CG6040
Flight time N/A
Altitude 1500
Route KAVX DCT COASTLINE SOUTHBOUND DCT KSAN
Aircraft H60/M-SDFGIRY/S

Departure

Time N/A
Airport Catalina Airport (KAVX)

Arrival

Time 2026-04-25 17:26
Airport San Diego International Airport (KSAN)
Time Latitude Longitude Altitude Speed Heading
2026-04-25 16:39 33.40387 -118.41528 1589 ft 0 kts 233°
2026-04-25 16:45 33.40365 -118.41562 1613 ft 9 kts 199°
2026-04-25 16:45 33.40387 -118.41461 2027 ft 28 kts 98°
2026-04-25 16:46 33.40686 -118.40915 2102 ft 142 kts 51°
2026-04-25 16:46 33.41597 -118.39868 1350 ft 207 kts 40°
2026-04-25 16:46 33.42758 -118.38795 685 ft 208 kts 34°
2026-04-25 16:46 33.43514 -118.38148 812 ft 194 kts 33°
2026-04-25 16:47 33.44897 -118.36970 1405 ft 183 kts 33°
2026-04-25 16:47 33.45951 -118.36066 1514 ft 182 kts 33°
2026-04-25 16:47 33.46969 -118.35203 1506 ft 182 kts 33°
2026-04-25 16:47 33.48006 -118.34326 1506 ft 178 kts 33°
2026-04-25 16:48 33.48965 -118.33513 1508 ft 163 kts 33°
2026-04-25 16:48 33.49867 -118.32752 1508 ft 155 kts 33°
2026-04-25 16:48 33.50739 -118.32013 1508 ft 152 kts 33°
2026-04-25 16:48 33.51601 -118.31289 1508 ft 151 kts 33°
2026-04-25 16:49 33.52459 -118.30568 1508 ft 150 kts 33°
2026-04-25 16:49 33.53314 -118.29851 1511 ft 149 kts 33°
2026-04-25 16:49 33.54166 -118.29142 1512 ft 149 kts 33°
2026-04-25 16:49 33.55018 -118.28436 1509 ft 149 kts 33°
2026-04-25 16:50 33.55869 -118.27733 1507 ft 149 kts 33°
2026-04-25 16:50 33.56723 -118.27034 1508 ft 148 kts 33°
2026-04-25 16:50 33.57582 -118.26346 1512 ft 149 kts 33°
2026-04-25 16:50 33.58437 -118.25522 1496 ft 167 kts 46°
2026-04-25 16:51 33.59178 -118.24385 1509 ft 177 kts 58°
2026-04-25 16:51 33.59766 -118.23066 1498 ft 181 kts 65°
2026-04-25 16:51 33.60318 -118.21705 1504 ft 186 kts 65°
2026-04-25 16:51 33.60704 -118.20757 1507 ft 188 kts 65°
2026-04-25 16:52 33.61459 -118.18867 1509 ft 190 kts 66°
2026-04-25 16:52 33.62044 -118.17436 1508 ft 191 kts 66°
2026-04-25 16:52 33.62642 -118.16016 1502 ft 190 kts 65°
2026-04-25 16:52 33.63235 -118.14602 1504 ft 189 kts 65°
2026-04-25 16:53 33.64415 -118.11802 1499 ft 187 kts 65°
2026-04-25 16:53 33.64986 -118.10444 1519 ft 168 kts 66°
2026-04-25 16:53 33.65240 -118.09204 1516 ft 142 kts 92°
2026-04-25 16:54 33.65167 -118.08058 1497 ft 140 kts 99°
2026-04-25 16:54 33.65098 -118.06882 1498 ft 143 kts 99°
2026-04-25 16:54 33.65020 -118.05693 1508 ft 143 kts 99°
2026-04-25 16:54 33.64944 -118.04498 1505 ft 144 kts 99°
2026-04-25 16:55 33.64860 -118.03297 1504 ft 145 kts 99°
2026-04-25 16:55 33.64784 -118.02106 1497 ft 145 kts 99°
2026-04-25 16:55 33.64700 -118.00907 1503 ft 144 kts 99°
2026-04-25 16:55 33.64623 -117.99711 1503 ft 143 kts 99°
2026-04-25 16:56 33.64537 -117.98522 1497 ft 143 kts 99°
2026-04-25 16:56 33.64311 -117.97424 1499 ft 128 kts 129°
2026-04-25 16:56 33.63699 -117.96503 1489 ft 152 kts 133°
2026-04-25 16:56 33.62987 -117.95491 1499 ft 165 kts 133°
2026-04-25 16:57 33.62227 -117.94420 1484 ft 171 kts 133°
2026-04-25 16:57 33.61709 -117.93699 1507 ft 174 kts 133°
2026-04-25 16:57 33.60644 -117.92215 1508 ft 176 kts 133°
2026-04-25 16:57 33.59850 -117.91118 1509 ft 177 kts 133°
2026-04-25 16:58 33.59047 -117.90003 1510 ft 176 kts 133°
2026-04-25 16:58 33.58252 -117.88879 1511 ft 177 kts 133°
2026-04-25 16:58 33.57440 -117.87761 1507 ft 177 kts 133°
2026-04-25 16:58 33.56637 -117.86645 1509 ft 174 kts 133°
2026-04-25 16:59 33.55948 -117.85685 1513 ft 135 kts 133°
2026-04-25 16:59 33.55390 -117.84896 1519 ft 116 kts 133°
2026-04-25 16:59 33.54905 -117.84196 1519 ft 104 kts 133°
2026-04-25 16:59 33.54457 -117.83551 1516 ft 97 kts 133°
2026-04-25 17:00 33.54040 -117.82937 1520 ft 93 kts 133°
2026-04-25 17:00 33.53628 -117.82341 1514 ft 93 kts 133°
2026-04-25 17:00 33.53229 -117.81737 1515 ft 92 kts 133°
2026-04-25 17:00 33.52833 -117.81140 1514 ft 91 kts 133°
2026-04-25 17:01 33.52436 -117.80546 1505 ft 91 kts 133°
2026-04-25 17:01 33.52037 -117.79964 1510 ft 90 kts 133°
2026-04-25 17:01 33.51655 -117.79377 1510 ft 89 kts 133°
2026-04-25 17:01 33.51281 -117.78794 1513 ft 88 kts 133°
2026-04-25 17:02 33.50895 -117.78227 1508 ft 88 kts 133°
2026-04-25 17:02 33.50505 -117.77649 1512 ft 89 kts 133°
2026-04-25 17:02 33.50130 -117.77062 1509 ft 88 kts 133°
2026-04-25 17:02 33.49757 -117.76482 1515 ft 88 kts 133°
2026-04-25 17:03 33.49380 -117.75916 1513 ft 88 kts 133°
2026-04-25 17:03 33.48996 -117.75339 1514 ft 89 kts 133°
2026-04-25 17:03 33.48622 -117.74743 1508 ft 88 kts 133°
2026-04-25 17:03 33.48259 -117.74160 1514 ft 89 kts 133°
2026-04-25 17:04 33.47888 -117.73571 1513 ft 88 kts 133°
2026-04-25 17:04 33.47511 -117.72990 1515 ft 89 kts 133°
2026-04-25 17:04 33.47121 -117.72413 1514 ft 89 kts 133°
2026-04-25 17:04 33.46724 -117.71837 1513 ft 89 kts 133°
2026-04-25 17:05 33.46333 -117.71260 1522 ft 90 kts 133°
2026-04-25 17:05 33.45558 -117.70029 1515 ft 94 kts 133°
2026-04-25 17:05 33.45172 -117.69400 1512 ft 95 kts 133°
2026-04-25 17:06 33.44768 -117.68764 1514 ft 97 kts 133°
2026-04-25 17:06 33.44356 -117.68123 1513 ft 97 kts 133°
2026-04-25 17:06 33.43936 -117.67487 1514 ft 97 kts 133°
2026-04-25 17:06 33.43525 -117.66848 1513 ft 97 kts 133°
2026-04-25 17:07 33.43117 -117.66206 1519 ft 97 kts 133°
2026-04-25 17:07 33.42705 -117.65551 1516 ft 99 kts 133°
2026-04-25 17:07 33.42241 -117.64831 1502 ft 131 kts 133°
2026-04-25 17:07 33.41601 -117.63870 1506 ft 160 kts 133°
2026-04-25 17:08 33.40874 -117.62780 1497 ft 173 kts 133°
2026-04-25 17:08 33.40100 -117.61639 1513 ft 179 kts 133°
2026-04-25 17:08 33.39318 -117.60487 1516 ft 182 kts 133°
2026-04-25 17:08 33.38541 -117.59380 1531 ft 159 kts 139°
2026-04-25 17:09 33.37680 -117.58692 1525 ft 140 kts 158°
2026-04-25 17:09 33.36741 -117.58080 1514 ft 163 kts 153°
2026-04-25 17:09 33.35725 -117.57352 1510 ft 175 kts 153°
2026-04-25 17:09 33.34670 -117.56592 1517 ft 179 kts 153°
2026-04-25 17:10 33.33594 -117.55832 1515 ft 180 kts 153°
2026-04-25 17:10 33.32510 -117.55069 1516 ft 181 kts 153°
2026-04-25 17:10 33.31421 -117.54304 1518 ft 181 kts 153°
2026-04-25 17:10 33.30331 -117.53549 1521 ft 181 kts 153°
2026-04-25 17:11 33.29254 -117.52809 1519 ft 181 kts 153°
2026-04-25 17:11 33.28163 -117.52060 1512 ft 180 kts 153°
2026-04-25 17:11 33.27078 -117.51298 1518 ft 182 kts 153°
2026-04-25 17:11 33.25979 -117.50525 1517 ft 184 kts 153°
2026-04-25 17:12 33.24871 -117.49751 1510 ft 185 kts 153°
2026-04-25 17:12 33.23766 -117.48955 1511 ft 185 kts 153°
2026-04-25 17:12 33.22661 -117.48169 1512 ft 185 kts 153°
2026-04-25 17:12 33.21555 -117.47379 1506 ft 184 kts 153°
2026-04-25 17:13 33.20460 -117.46614 1507 ft 181 kts 153°
2026-04-25 17:13 33.20092 -117.46359 1510 ft 181 kts 153°
2026-04-25 17:13 33.18307 -117.45083 1507 ft 180 kts 153°
2026-04-25 17:13 33.17238 -117.44319 1511 ft 180 kts 153°
2026-04-25 17:14 33.16156 -117.43569 1510 ft 180 kts 153°
2026-04-25 17:14 33.15074 -117.42824 1514 ft 180 kts 153°
2026-04-25 17:14 33.14002 -117.42055 1513 ft 179 kts 153°
2026-04-25 17:14 33.12934 -117.41291 1513 ft 179 kts 153°
2026-04-25 17:15 33.11861 -117.40533 1514 ft 179 kts 153°
2026-04-25 17:15 33.10794 -117.39763 1516 ft 179 kts 153°
2026-04-25 17:15 33.09717 -117.39000 1513 ft 179 kts 153°
2026-04-25 17:15 33.08645 -117.38243 1511 ft 179 kts 153°
2026-04-25 17:16 33.07570 -117.37484 1513 ft 179 kts 153°
2026-04-25 17:16 33.06495 -117.36727 1513 ft 180 kts 153°
2026-04-25 17:16 33.05407 -117.35970 1512 ft 181 kts 153°
2026-04-25 17:16 33.04318 -117.35222 1524 ft 181 kts 153°
2026-04-25 17:17 33.03228 -117.34475 1521 ft 181 kts 153°
2026-04-25 17:17 33.02158 -117.33726 1523 ft 181 kts 153°
2026-04-25 17:17 33.01074 -117.32964 1523 ft 181 kts 153°
2026-04-25 17:17 32.99985 -117.32204 1522 ft 182 kts 153°
2026-04-25 17:18 32.98896 -117.31449 1523 ft 180 kts 153°
2026-04-25 17:18 32.97816 -117.30687 1524 ft 180 kts 153°
2026-04-25 17:18 32.96741 -117.29917 1527 ft 181 kts 153°
2026-04-25 17:18 32.95653 -117.29149 1528 ft 181 kts 153°
2026-04-25 17:19 32.94525 -117.28689 1544 ft 152 kts 167°
2026-04-25 17:19 32.93615 -117.28351 1550 ft 124 kts 167°
2026-04-25 17:19 32.92843 -117.28036 1541 ft 111 kts 167°
2026-04-25 17:19 32.92133 -117.27762 1538 ft 104 kts 167°
2026-04-25 17:20 32.91457 -117.27491 1535 ft 101 kts 167°
2026-04-25 17:20 32.90794 -117.27230 1531 ft 99 kts 167°
2026-04-25 17:20 32.90133 -117.26966 1530 ft 112 kts 168°
2026-04-25 17:20 32.89246 -117.26661 1514 ft 148 kts 168°
2026-04-25 17:21 32.88191 -117.26307 1528 ft 164 kts 168°
2026-04-25 17:21 32.87108 -117.26005 1524 ft 155 kts 174°
2026-04-25 17:21 32.86091 -117.25980 1486 ft 141 kts 192°
2026-04-25 17:21 32.85118 -117.26086 1427 ft 143 kts 184°
2026-04-25 17:22 32.84124 -117.25950 1277 ft 145 kts 176°
2026-04-25 17:22 32.83786 -117.25910 1250 ft 144 kts 179°
2026-04-25 17:22 32.82127 -117.25875 1225 ft 147 kts 185°
2026-04-25 17:22 32.81060 -117.25925 1601 ft 162 kts 187°
2026-04-25 17:23 32.79873 -117.25967 1113 ft 182 kts 183°
2026-04-25 17:23 32.78672 -117.25919 1493 ft 165 kts 181°
2026-04-25 17:23 32.77445 -117.25879 1305 ft 189 kts 180°
2026-04-25 17:23 32.76137 -117.25725 1292 ft 184 kts 177°
2026-04-25 17:24 32.74913 -117.25522 1746 ft 175 kts 174°
2026-04-25 17:24 32.74125 -117.25241 1879 ft 185 kts 163°
2026-04-25 17:24 32.73084 -117.24222 1491 ft 209 kts 133°
2026-04-25 17:24 32.72505 -117.22672 694 ft 201 kts 109°
2026-04-25 17:25 32.72233 -117.21142 446 ft 167 kts 98°
2026-04-25 17:25 32.72154 -117.19900 353 ft 144 kts 93°
2026-04-25 17:25 32.72193 -117.18862 354 ft 106 kts 90°
2026-04-25 17:25 32.72275 -117.18053 163 ft 78 kts 62°
2026-04-25 17:26 32.72527 -117.17954 132 ft 43 kts 312°
2026-04-25 17:26 32.72610 -117.18092 38 ft 6 kts 292°
2026-04-25 17:26 32.72624 -117.18139 21 ft 4 kts 292°
2026-04-25 17:26 32.72626 -117.18145 12 ft 0 kts 289°
2026-04-25 17:27 32.72634 -117.18172 13 ft 4 kts 294°
2026-04-25 17:27 32.72635 -117.18173 13 ft 0 kts 293°